Estación de Casablanca

Ultimos registro cada 15 minutos 26
Estación Fecha / Hora Temperatura Humedad Lluvia Velocidad Dirección Radiación Presion
26 Casablanca 04-05-2026 06:15 0,9 74,7 0 0 265 0,6 987,4
25 Casablanca 04-05-2026 06:00 0,3 75,6 0 0 265 0,6 987,2
24 Casablanca 04-05-2026 05:45 -0,1 76,7 0 0 265 0,6 987
23 Casablanca 04-05-2026 05:30 0,2 76,8 0 0 265 0,6 987
22 Casablanca 04-05-2026 05:15 1 73,6 0 0 265 0,6 987
21 Casablanca 04-05-2026 05:00 0,5 74,9 0 0 265 0,6 987
20 Casablanca 04-05-2026 04:45 0,3 75,9 0 0 265 0,6 987,1
19 Casablanca 04-05-2026 04:30 -0,1 77,2 0 0 265 0,6 987
18 Casablanca 04-05-2026 04:15 0,1 77,1 0 0 265 0,6 987
17 Casablanca 04-05-2026 04:00 0,7 72,9 0 0 265 0,6 987,1
16 Casablanca 04-05-2026 03:45 0,7 73,3 0 0 265 0,6 987,3
15 Casablanca 04-05-2026 03:30 0,4 72,8 0 0 265 0,6 987,3
14 Casablanca 04-05-2026 03:15 0,5 74,9 0 0 265 0,6 987,4
13 Casablanca 04-05-2026 03:00 0,8 72,6 0 0 265 0,6 987,7
12 Casablanca 04-05-2026 02:45 1,4 70,9 0 0 265 0,6 987,7
11 Casablanca 04-05-2026 02:30 1,2 72,4 0 0 265 0,6 987,8
10 Casablanca 04-05-2026 02:15 0,9 75,1 0 0 265 0,6 987,9
9 Casablanca 04-05-2026 02:00 1,3 71,4 0 0 265 0,6 987,9
8 Casablanca 04-05-2026 01:45 2,7 65,9 0 0 265 0,6 988,1
7 Casablanca 04-05-2026 01:30 2,1 67,5 0 0 265 0,6 988,2
6 Casablanca 04-05-2026 01:15 1,9 68,8 0 0 265 0,6 988,4
5 Casablanca 04-05-2026 01:00 1,9 70,7 0 0 265 0,6 988,6
4 Casablanca 04-05-2026 00:45 3,7 61,4 0 0 265 0,6 988,6
3 Casablanca 04-05-2026 00:30 3,2 64,1 0 0 265 0,6 988,7
2 Casablanca 04-05-2026 00:15 3 65,8 0 0 265 0,6 988,7
1 Casablanca 04-05-2026 00:00 3,5 63,2 0 0 265 0,6 988,8